User: anonymous
Location: Unspecified
(0.0000°N, 0.0000°E)
Time: 20:01:54
(UTC+02:00)
Language:

Ariane H10 - Orbit

View from above orbital plane
View from above orbital plane
View from above satellite
View from above satellite

Ground track
Ground track

The orbit data is extracted from the following two-line orbital elements,

1 19122U 88040B   14230.68355514  .00000375  00000-0  20631-2 0   194
2 19122 007.0613 233.6164 7151515 033.2948 356.0346 02.32241363172635
Epoch (UTC): 18 August 2014 16:24:19
Eccentricity: 0.7151515
inclination: 7.0613°
perigee height: 483 km
apogee height: 34933 km
right ascension of ascending node: 233.6164°
argument of perigee: 33.2948°
revolutions per day: 2.32241363
mean anomaly at epoch: 356.0346°
orbit number at epoch: 17263

The dashed part of the orbit path shows where the satellite is in the earth's shadow,  

DLR